Simultaneous Nadir Overpasses (SNOs) Predictions

Prediction of SNOs between GOES-17 and AQUA Satellite Orbit:

Table of predicted SNOs for the next 14.0 days since TLE Epoch: 6/24/2023
Index Date Time (GOES-17) GOES-17 Lat,Lon AQUA Lat,Lon Distance(km) Time Diff (sec)
1 06/24/2023 08:52:30 -0.01,-104.73 0.09,-105.28 62.32 80
2 06/26/2023 08:35:41 -0.01,-104.73 -0.66,-101.83 330.98 80
3 06/26/2023 20:56:33 0.01,-104.72 -0.47,-106.88 246.34 80
4 06/28/2023 20:45:03 0.01,-104.72 0.27,-103.42 147.31 80
5 06/29/2023 09:05:48 -0.01,-104.74 0.77,-108.45 421.62 80
6 07/01/2023 08:51:37 -0.01,-104.74 0.05,-104.99 28.39 80
7 07/03/2023 08:34:46 -0.01,-104.74 -0.70,-101.53 364.56 80
8 07/03/2023 20:55:39 0.01,-104.71 -0.39,-106.59 213.42 80
9 07/05/2023 20:44:07 0.01,-104.71 0.35,-103.12 179.84 80
10 07/06/2023 09:04:51 -0.01,-104.73 0.73,-108.15 388.60 80
